Tracking 31023 objects as of 20-Jul-2025
HD Live streaming from Space Station
objects crossing your sky now

ATLAS 2AS CENTAUR R/B

Track ATLAS 2AS CENTAUR R/B now!
10-day predictions


NORAD ID: 28096
Int'l Code: 2003-054B
Perigee: 1,047.9 km
Apogee: 1,177.2 km
Inclination: 63.7 °
Period: 107.4 minutes
Semi major axis: 7483 km
RCS: Unknown
Launch date: December 2, 2003
Source: United States (US)
Launch site: AIR FORCE WESTERN TEST RANGE (AFWTR)

Note: This is a ROCKET BODY
Your satellite tracking list
Your tracking list is empty




NASA's NSSDC Master Catalog

Two Line Element Set (TLE):
1 28096U 03054B   25200.34418779 -.00000049  00000-0  68242-4 0  9999
2 28096  63.6787 155.4043 0086402 141.1278 219.6005 13.41039088 57787
Source of the keplerian elements: McCants